TimeAST,TemperatureF,Dew PointF,Humidity,Sea Level PressureIn,VisibilityMPH,Wind Direction,Wind SpeedMPH,Gust SpeedMPH,PrecipitationIn,Events,Conditions,WindDirDegrees,DateUTC
12:00 AM,80.6,73.4,79,29.95,6.2,ESE,17.3,-,N/A,,Partly Cloudy,110,2013-04-09 04:00:00
1:00 AM,80.6,71.6,74,29.95,6.2,East,13.8,-,N/A,,Partly Cloudy,100,2013-04-09 05:00:00
2:00 AM,80,71,68,29.93,12,ESE,13.8,,,,Widespread Dust,110,2013-04-09 06:00:00
2:00 AM,80.6,71.6,74,29.92,6.2,ESE,13.8,-,N/A,,Partly Cloudy,110,2013-04-09 06:00:00
3:00 AM,78.8,71.6,78,29.92,6.2,East,11.5,-,N/A,,Partly Cloudy,90,2013-04-09 07:00:00
4:00 AM,-9999,-9999,N/A,29.92,6.2,East,13.8,-,N/A,,Partly Cloudy,100,2013-04-09 08:00:00
5:00 AM,80,73,75,29.93,12,ESE,20.7,,,,Widespread Dust,110,2013-04-09 09:00:00
5:00 AM,80.6,73.4,79,29.92,6.2,ESE,20.7,-,N/A,,Partly Cloudy,110,2013-04-09 09:00:00
6:00 AM,80.6,73.4,79,29.95,6.2,ESE,20.7,-,N/A,,Mostly Cloudy,120,2013-04-09 10:00:00
7:00 AM,80.6,73.4,79,29.95,6.2,ESE,20.7,-,N/A,,Mostly Cloudy,120,2013-04-09 11:00:00
8:00 AM,82,74,69,29.99,11,ESE,20.7,,,,Widespread Dust,120,2013-04-09 12:00:00
8:00 AM,82.4,73.4,74,29.98,6.2,ESE,20.7,-,N/A,,Scattered Clouds,120,2013-04-09 12:00:00
9:00 AM,84.2,73.4,70,30.01,6.2,ESE,23.0,-,N/A,,Scattered Clouds,120,2013-04-09 13:00:00
10:00 AM,84.2,73.4,70,30.01,6.2,SE,23.0,-,N/A,,Partly Cloudy,130,2013-04-09 14:00:00
11:00 AM,84,74,65,30.01,14,SE,23.0,,,,Widespread Dust,130,2013-04-09 15:00:00
11:00 AM,84.2,73.4,70,30.01,6.2,SE,23.0,-,N/A,,Scattered Clouds,130,2013-04-09 15:00:00
12:00 PM,84.2,73.4,70,29.98,6.2,SE,20.7,-,N/A,,Scattered Clouds,130,2013-04-09 16:00:00
1:00 PM,86.0,73.4,66,29.95,6.2,SE,20.7,-,N/A,,Partly Cloudy,130,2013-04-09 17:00:00
2:00 PM,84,74,66,29.94,15,SE,20.7,,,,Widespread Dust,130,2013-04-09 18:00:00
2:00 PM,84.2,75.2,74,29.92,6.2,SE,20.7,-,N/A,,Partly Cloudy,130,2013-04-09 18:00:00
3:00 PM,84.2,75.2,74,29.92,6.2,SE,19.6,-,N/A,,Scattered Clouds,130,2013-04-09 19:00:00
4:00 PM,84.2,75.2,74,29.89,6.2,SE,18.4,-,N/A,,Scattered Clouds,130,2013-04-09 20:00:00
5:00 PM,83,74,66,29.90,14,ESE,17.3,,,,Scattered Clouds,120,2013-04-09 21:00:00
5:00 PM,82.4,73.4,74,29.89,6.2,ESE,17.3,-,N/A,,Scattered Clouds,120,2013-04-09 21:00:00
7:00 PM,80.6,71.6,74,29.92,6.2,ESE,20.7,-,N/A,,Scattered Clouds,120,2013-04-09 23:00:00
8:00 PM,81,73,71,29.94,12,ESE,17.3,,,,Widespread Dust,120,2013-04-10 00:00:00
8:00 PM,80.6,73.4,79,29.92,6.2,ESE,17.3,-,N/A,,Scattered Clouds,120,2013-04-10 00:00:00
9:00 PM,80.6,73.4,79,29.95,6.2,ESE,19.6,-,N/A,,Scattered Clouds,120,2013-04-10 01:00:00
10:00 PM,80.6,71.6,74,29.98,6.2,ESE,20.7,-,N/A,,Scattered Clouds,110,2013-04-10 02:00:00
11:00 PM,80,73,74,29.98,12,ESE,19.6,,,Rain,Light Rain Showers,110,2013-04-10 03:00:00
11:00 PM,80.6,73.4,79,29.98,6.2,ESE,19.6,-,N/A,Rain,Light Rain Showers,110,2013-04-10 03:00:00